Regional Weather Roundup
Issued by NWS Lake Charles, LA

Home | Current Version | Previous Version | Text Only | Print | Product List | Glossary On
Versions: 1 2 3 4 5 6 7 8 9 10 11 12 13 14 15 16 17 18 19 20 21 22 23 24 25 26 27 28 29 30 31 32 33 34 35 36 37 38 39 40 41 42 43 44 45 46 47 48 49 50
848
ASUS44 KLCH 052110
RWRLCH
REGIONAL WEATHER ROUNDUP
NATIONAL WEATHER SERVICE LAKE CHARLES LA
300 PM CST MON DEC 05 2016

Note: "fair" indicates few or no clouds below 12,000 feet with no
significant weather and/or obstructions to visibility.


ACROSS SOUTHEAST TEXAS

CITY           SKY/WX    TMP DP  RH WIND       PRES   REMARKS
BEAUMONT       CLOUDY    58  55  90 NE6       29.67F
BEAUMONT CITY  CLOUDY    57  55  94 NW6       29.69F
ORANGE         CLOUDY   N/A N/A N/A NE6       29.69F
JASPER         CLOUDY    55  54  95 N5        29.72F
$$

ACROSS CENTRAL LOUISIANA

CITY           SKY/WX    TMP DP  RH WIND       PRES   REMARKS
LEESVILLE      LGT RAIN  54  54 100 NE6       29.70S FOG
FULLERTON      LGT RAIN  54  53  97 CALM      29.70R
ALEXANDRIA INT TSTM      53  52  96 E6        29.68F FOG
ESLER FIELD    TSTM      52  52 100 E3        29.70F FOG
DERIDDER       DRIZZLE   54  53  95 CALM      29.72F
OAKDALE        RAIN      52  52  98 NE6       29.70F
OPELOUSAS      CLOUDY    54  53  97 E3        29.69F
$$

ACROSS SOUTHWEST AND SOUTH CENTRAL LOUISIANA

CITY           SKY/WX    TMP DP  RH WIND       PRES   REMARKS
SULPHUR        CLOUDY    55  55  98 N3        29.68F
LAKE CHARLES   CLOUDY    53  52  96 NE9       29.68F
CHENNAULT INT  CLOUDY    52  52 100 N3        29.70F
CAMERON PHI    CLOUDY    55  54  94 NE8G15    29.67F
DEQUINCY       CLOUDY    54  54  99 CALM      29.70F
JENNINGS       CLOUDY    54  54 100 N6        29.70R
LAFAYETTE      CLOUDY    59  59 100 VRB7      29.69F
NEW IBERIA     CLOUDY    61  58  90 E7        29.69F
ABBEVILLE      NOT AVBL
PATTERSON      CLOUDY   N/A N/A N/A E8        29.71F
SALT POINT     NOT AVBL
$$

SELECTED SITES ACROSS THE REGION

CITY           SKY/WX    TMP DP  RH WIND       PRES   REMARKS
HOUSTON BUSH   LGT RAIN  53  52  96 W7        29.74R FOG
HOUSTON HOBBY  LGT RAIN  54  53  97 W12       29.74R FOG
GALVESTON      LGT RAIN  57  56  96 W12G20    29.74R FOG
COLLEGE STAT   LGT RAIN  50  50 100 NW8       29.76S FOG
CONROE         CLOUDY    52  50  93 NW7       29.73S FOG
HUNTSVILLE     LGT RAIN  50  49  96 NW5       29.74S VSB 1
LUFKIN         CLOUDY    49  48  97 N3        29.73R FOG
SHREVEPORT     CLOUDY    49  48  97 E9        29.74F FOG
MONROE         RAIN      49  47  93 NE9       29.76F FOG
NATCHEZ MS     CLOUDY    55  52  88 CALM      29.71F
BATON ROUGE    LGT RAIN  60  59  96 E9        29.71F FOG
N.O. INTL ARPT CLOUDY    60  60 100 NE8       29.74S
SLIDELL        CLOUDY    60  59  96 NE7       29.74F
$$

MARINE REPORTS

STATION/POSITION TIME  SKY/WX   TEMP    WIND        PRES    VSBY
                                AIR SEA DIR/SP/G
                 (UTC)          (F)     (DEG/KT/KT) (MB)    (MI)
BUOY 30 S HIGH I 2050            59 67  310/  8/ 10 1005.9R
WVE H/P(F/S)=  4/ 5

SEA RIM ST PARK  2100            54      50/ 11/ 12 1005.2F
PORT ARTHUR      2048               58   70/  7/ 10 1004.8F
SABINE PASS N    2048            54 59   40/  8/ 12 1005.9F
TEXAS POINT      NOT AVBL
CALCASIEU PASS   2048            54 58   40/ 13/ 16   N/A
LK CHARLES BEACH 2048            53 58              1006.0F
MARSH ISLAND     2000            61                   N/A
FRESH WATER LOCK 2048            65 60   80/ 10/ 13 1005.3F
AMERADA PASS     2048            63 62   80/  6/  9 1005.6F
$$




USA.gov is the U.S. government's official web portal to all federal, state and local government web resources and services.